{"data":{"norad_id":64552,"epoch":"2026-05-25T04:29:21.138144Z","epoch_age_seconds":58801,"freshness":"FRESH","line1":"1 64552U 25135AA  26145.18705021  .00004184  00000+0  18569-3 0  9998","line2":"2 64552  97.4643 260.6725 0001995  69.7823 290.3627 15.22119536 51385","mean_motion":15.22119536,"eccentricity":0.0001995,"inclination_deg":97.4643,"raan_deg":260.6725,"arg_perigee_deg":69.7823,"mean_anomaly_deg":290.3627,"bstar":0.00018569,"rev_number":5138,"period_min":94.604922014482,"perigee_km":498.07647207993,"apogee_km":500.82062871454,"semimajor_km":6877.5855503972,"source":"CELESTRAK","updated_at":"2026-05-25T13:38:04.613895Z"}}